| time (UTC) | temp F | wind direction | speed MPH | gust MPH | rain 1hr in | rain 24hr in | rain mn in | humidity % | barometer mb |
| 20260906124601 | 77 | 247 | 2.0 | 4.0 | 0.00 | 0.01 | 0.00 | 95 | 1012.5 |
| 20260906123051 | 76 | 211 | 1.0 | 3.0 | 0.00 | 0.01 | 0.00 | 96 | 1012.4 |
| 20260906121555 | 76 | 209 | 1.0 | 3.0 | 0.00 | 0.01 | 0.00 | 96 | 1012.5 |
| 20260906120022 | 75 | 269 | 0.0 | 0.0 | 0.00 | 0.01 | 0.00 | 96 | 1012.3 |
| 20260906114610 | 74 | 269 | 0.0 | 0.0 | 0.00 | 0.01 | 0.00 | 96 | 1012.0 |
| 20260906113026 | 73 | 269 | 0.0 | 0.0 | 0.00 | 0.01 | 0.00 | 96 | 1011.7 |
| 20260906111553 | 73 | 269 | 0.0 | 0.0 | 0.00 | 0.01 | 0.00 | 96 | 1011.5 |
| 20260906110020 | 74 | 204 | 0.0 | 0.0 | 0.00 | 0.01 | 0.00 | 96 | 1011.3 |
| 20260906104555 | 74 | 204 | 0.0 | 0.0 | 0.00 | 0.01 | 0.00 | 96 | 1011.1 |
| 20260906103019 | 74 | 204 | 0.0 | 0.0 | 0.00 | 0.01 | 0.00 | 96 | 1011.0 |
| 20260906101554 | 74 | 204 | 0.0 | 0.0 | 0.00 | 0.01 | 0.00 | 96 | 1011.1 |
| 20260906100014 | 74 | 204 | 0.0 | 2.0 | 0.00 | 0.01 | 0.00 | 96 | 1011.1 |
| 20260906094603 | 74 | 204 | 0.0 | 2.0 | 0.00 | 0.01 | 0.00 | 95 | 1011.1 |
| 20260906093022 | 74 | 204 | 0.0 | 2.0 | 0.00 | 0.01 | 0.00 | 95 | 1011.2 |
| 20260906091603 | 75 | 204 | 0.0 | 1.0 | 0.00 | 0.01 | 0.00 | 95 | 1011.1 |
| 20260906090031 | 75 | 204 | 0.0 | 2.0 | 0.00 | 0.01 | 0.00 | 95 | 1010.7 |
| 20260906084607 | 75 | 204 | 0.0 | 2.0 | 0.00 | 0.01 | 0.00 | 95 | 1010.8 |
| 20260906083014 | 75 | 204 | 0.0 | 1.0 | 0.00 | 0.01 | 0.00 | 95 | 1010.6 |
| 20260906081700 | 75 | 204 | 0.0 | 0.0 | 0.00 | 0.01 | 0.00 | 95 | 1010.5 |
| 20260906080030 | 75 | 204 | 0.0 | 0.0 | 0.00 | 0.01 | 0.00 | 95 | 1010.6 |
| 20260906074607 | 75 | 204 | 0.0 | 0.0 | 0.00 | 0.01 | 0.00 | 95 | 1010.7 |
| 20260906073029 | 75 | 204 | 0.0 | 0.0 | 0.00 | 0.01 | 0.00 | 95 | 1010.6 |
| 20260906071610 | 75 | 204 | 0.0 | 0.0 | 0.00 | 0.01 | 0.00 | 95 | 1010.8 |
| 20260906070039 | 75 | 204 | 0.0 | 0.0 | 0.00 | 0.01 | 0.00 | 95 | 1010.8 |
| 20260906064512 | 76 | 204 | 0.0 | 0.0 | 0.00 | 0.01 | 0.00 | 94 | 1011.0 |
| 20260906063048 | 76 | 203 | 0.0 | 2.0 | 0.00 | 0.01 | 0.00 | 94 | 1011.1 |
| 20260906061514 | 76 | 204 | 0.0 | 2.0 | 0.00 | 0.01 | 0.00 | 94 | 1011.0 |
| 20260906060047 | 76 | 203 | 0.0 | 0.0 | 0.00 | 0.01 | 0.00 | 93 | 1011.1 |
| 20260906054508 | 76 | 204 | 0.0 | 2.0 | 0.00 | 0.01 | 0.00 | 93 | 1011.2 |
| 20260906053043 | 77 | 203 | 0.0 | 0.0 | 0.00 | 0.01 | 0.00 | 92 | 1011.3 |
| 20260906051503 | 77 | 203 | 0.0 | 0.0 | 0.00 | 0.01 | 0.00 | 91 | 1011.6 |
| 20260906050050 | 78 | 203 | 0.0 | 5.0 | 0.00 | 0.01 | 0.00 | 91 | 1011.2 |
| 20260906044504 | 78 | 212 | 2.0 | 4.0 | 0.00 | 0.01 | 0.00 | 90 | 1011.1 |
| 20260906043034 | 78 | 200 | 1.0 | 3.0 | 0.00 | 0.01 | 0.00 | 90 | 1011.4 |
| 20260906041508 | 78 | 216 | 1.0 | 3.0 | 0.00 | 0.01 | 0.00 | 90 | 1011.4 |
| 20260906040038 | 78 | 205 | 2.0 | 4.0 | 0.00 | 0.01 | 0.00 | 89 | 1011.7 |
| 20260906034608 | 78 | 214 | 1.0 | 3.0 | 0.00 | 0.01 | 0.01 | 90 | 1011.8 |
| 20260906033048 | 78 | 219 | 0.0 | 0.0 | 0.00 | 0.01 | 0.01 | 90 | 1012.1 |
| 20260906031501 | 79 | 219 | 0.0 | 2.0 | 0.00 | 0.01 | 0.01 | 90 | 1012.2 |
| 20260906030043 | 79 | 219 | 0.0 | 2.0 | 0.00 | 0.01 | 0.01 | 89 | 1012.3 |
| 20260906024610 | 80 | 219 | 0.0 | 2.0 | 0.00 | 0.01 | 0.01 | 88 | 1012.2 |
| 20260906023040 | 80 | 235 | 0.0 | 2.0 | 0.00 | 0.01 | 0.01 | 89 | 1012.1 |
| 20260906021608 | 80 | 235 | 1.0 | 3.0 | 0.00 | 0.01 | 0.01 | 88 | 1012.0 |
| 20260906020028 | 80 | 202 | 2.0 | 4.0 | 0.00 | 0.01 | 0.01 | 88 | 1011.9 |
| 20260906014604 | 80 | 229 | 1.0 | 2.0 | 0.00 | 0.01 | 0.01 | 89 | 1011.7 |
| 20260906013030 | 80 | 232 | 1.0 | 3.0 | 0.00 | 0.01 | 0.01 | 91 | 1011.3 |
| 20260906011605 | 80 | 213 | 0.0 | 0.0 | 0.00 | 0.01 | 0.01 | 91 | 1011.1 |
| 20260906010015 | 80 | 213 | 0.0 | 0.0 | 0.00 | 0.01 | 0.01 | 90 | 1011.1 |
| 20260906004553 | 81 | 213 | 0.0 | 0.0 | 0.00 | 0.03 | 0.01 | 89 | 1011.0 |
| 20260906003010 | 81 | 213 | 0.0 | 0.0 | 0.00 | 0.03 | 0.01 | 87 | 1010.5 |
| 20260906001551 | 82 | 213 | 0.0 | 0.0 | 0.00 | 0.03 | 0.01 | 86 | 1010.4 |
| 20260906000034 | 83 | 213 | 0.0 | 0.0 | 0.00 | 0.03 | 0.01 | 84 | 1010.2 |
| 20260905234549 | 84 | 213 | 0.0 | 2.0 | 0.00 | 0.08 | 0.01 | 81 | 1010.3 |
| 20260905233013 | 85 | 213 | 1.0 | 5.0 | 0.00 | 0.08 | 0.01 | 79 | 1010.2 |
| 20260905231559 | 86 | 202 | 1.0 | 4.0 | 0.00 | 0.08 | 0.01 | 79 | 1010.3 |
| 20260905230028 | 87 | 200 | 1.0 | 5.0 | 0.00 | 0.08 | 0.01 | 77 | 1010.3 |
| 20260905224558 | 88 | 194 | 1.0 | 4.0 | 0.00 | 0.17 | 0.01 | 76 | 1010.5 |
| 20260905223030 | 88 | 192 | 2.0 | 5.0 | 0.00 | 0.17 | 0.01 | 75 | 1010.8 |
| 20260905221608 | 88 | 146 | 0.0 | 3.0 | 0.00 | 0.17 | 0.01 | 75 | 1011.0 |
| 20260905220038 | 88 | 215 | 0.0 | 4.0 | 0.00 | 0.17 | 0.01 | 75 | 1011.1 |
| 20260905214506 | 89 | 182 | 2.0 | 8.0 | 0.00 | 0.57 | 0.01 | 73 | 1011.1 |
| 20260905213042 | 90 | 215 | 3.0 | 6.0 | 0.00 | 0.57 | 0.01 | 73 | 1010.9 |
| 20260905211505 | 90 | 200 | 3.0 | 6.0 | 0.00 | 0.57 | 0.01 | 72 | 1010.8 |
| 20260905210041 | 89 | 219 | 2.0 | 6.0 | 0.00 | 0.57 | 0.01 | 73 | 1010.9 |
| 20260905204611 | 89 | 213 | 3.0 | 7.0 | 0.00 | 0.74 | 0.01 | 71 | 1010.9 |
| 20260905203041 | 89 | 216 | 3.0 | 7.0 | 0.00 | 0.74 | 0.01 | 73 | 1011.0 |
| 20260905201512 | 89 | 221 | 3.0 | 6.0 | 0.00 | 0.74 | 0.01 | 73 | 1011.3 |
| 20260905200054 | 90 | 197 | 2.0 | 10.0 | 0.00 | 0.74 | 0.01 | 74 | 1011.2 |
| 20260905194520 | 91 | 213 | 5.0 | 10.0 | 0.00 | 0.75 | 0.01 | 68 | 1011.2 |
| 20260905193054 | 90 | 237 | 4.0 | 7.0 | 0.01 | 0.75 | 0.01 | 71 | 1011.4 |
| 20260905191525 | 89 | 251 | 4.0 | 8.0 | 0.01 | 0.75 | 0.01 | 71 | 1011.8 |
| 20260905190114 | 87 | 216 | 2.0 | 6.0 | 0.01 | 0.75 | 0.01 | 74 | 1012.0 |
| 20260905184543 | 85 | 196 | 2.0 | 7.0 | 0.01 | 0.75 | 0.01 | 81 | 1012.0 |
| 20260905183106 | 88 | 252 | 1.0 | 3.0 | 0.00 | 0.74 | 0.00 | 72 | 1012.1 |
| 20260905181530 | 87 | 261 | 3.0 | 6.0 | 0.00 | 0.74 | 0.00 | 76 | 1012.5 |
| 20260905180058 | 88 | 253 | 2.0 | 5.0 | 0.00 | 0.74 | 0.00 | 72 | 1012.5 |
| 20260905174517 | 87 | 260 | 0.0 | 4.0 | 0.00 | 0.74 | 0.00 | 75 | 1012.4 |
| 20260905173052 | 85 | 152 | 0.0 | 7.0 | 0.00 | 0.74 | 0.00 | 81 | 1012.7 |
| 20260905171508 | 86 | 236 | 3.0 | 6.0 | 0.00 | 0.74 | 0.00 | 75 | 1013.0 |
| 20260905170042 | 86 | 226 | 5.0 | 9.0 | 0.00 | 0.74 | 0.00 | 76 | 1013.2 |
| 20260905164514 | 86 | 259 | 3.0 | 8.0 | 0.00 | 0.74 | 0.00 | 79 | 1013.5 |
| 20260905163042 | 84 | 26 | 2.0 | 5.0 | 0.00 | 0.74 | 0.00 | 83 | 1013.7 |
| 20260905161517 | 86 | 22 | 3.0 | 8.0 | 0.00 | 0.74 | 0.00 | 78 | 1013.9 |
| 20260905160055 | 86 | 43 | 3.0 | 6.0 | 0.00 | 0.74 | 0.00 | 78 | 1014.0 |
| 20260905154517 | 84 | 269 | 2.0 | 9.0 | 0.00 | 0.74 | 0.00 | 81 | 1014.1 |
| 20260905153055 | 86 | 360 | 4.0 | 9.0 | 0.00 | 0.74 | 0.00 | 78 | 1014.3 |
| 20260905151518 | 85 | 222 | 4.0 | 8.0 | 0.00 | 0.74 | 0.00 | 82 | 1014.4 |
| 20260905150049 | 84 | 198 | 2.0 | 6.0 | 0.00 | 0.74 | 0.00 | 84 | 1014.3 |
| 20260905144518 | 84 | 199 | 3.0 | 10.0 | 0.00 | 0.74 | 0.00 | 85 | 1014.3 |
| 20260905143049 | 83 | 227 | 4.0 | 8.0 | 0.00 | 0.74 | 0.00 | 87 | 1014.3 |
| 20260905141513 | 82 | 198 | 2.0 | 6.0 | 0.00 | 0.74 | 0.00 | 90 | 1014.4 |
| 20260905140047 | 81 | 203 | 3.0 | 6.0 | 0.00 | 0.74 | 0.00 | 94 | 1014.4 |
| 20260905134618 | 80 | 254 | 2.0 | 5.0 | 0.00 | 0.74 | 0.00 | 96 | 1014.3 |
| 20260905133042 | 79 | 240 | 2.0 | 5.0 | 0.00 | 0.74 | 0.00 | 97 | 1014.4 |
| 20260905131607 | 77 | 213 | 1.0 | 3.0 | 0.00 | 0.74 | 0.00 | 97 | 1014.3 |
| 20260905130021 | 77 | 227 | 1.0 | 3.0 | 0.00 | 0.74 | 0.00 | 97 | 1014.2 |